TimeEST,TemperatureF,Dew PointF,Humidity,Sea Level PressureIn,VisibilityMPH,Wind Direction,Wind SpeedMPH,Gust SpeedMPH,PrecipitationIn,Events,Conditions,WindDirDegrees,DateUTC
12:53 AM,39.0,36.0,89,30.35,10.0,Calm,Calm,-,N/A,,Clear,0,2013-11-15 05:53:00
1:53 AM,37.0,34.0,89,30.34,10.0,Calm,Calm,-,N/A,,Clear,0,2013-11-15 06:53:00
2:53 AM,37.0,34.0,89,30.34,10.0,Calm,Calm,-,N/A,,Clear,0,2013-11-15 07:53:00
3:53 AM,37.0,34.0,89,30.32,10.0,NE,3.5,-,N/A,,Clear,40,2013-11-15 08:53:00
4:53 AM,39.0,35.1,86,30.32,10.0,NNE,3.5,-,N/A,,Clear,20,2013-11-15 09:53:00
5:53 AM,41.0,37.0,86,30.32,10.0,NE,4.6,-,N/A,,Clear,40,2013-11-15 10:53:00
6:53 AM,41.0,37.9,89,30.34,10.0,NNE,4.6,-,N/A,,Clear,20,2013-11-15 11:53:00
7:53 AM,48.9,41.0,74,30.34,10.0,NE,6.9,-,N/A,,Clear,40,2013-11-15 12:53:00
8:53 AM,55.9,43.0,62,30.33,10.0,NNE,6.9,-,N/A,,Clear,30,2013-11-15 13:53:00
9:53 AM,60.1,44.1,55,30.34,10.0,ENE,8.1,-,N/A,,Clear,60,2013-11-15 14:53:00
10:53 AM,62.1,48.9,62,30.33,10.0,East,8.1,16.1,N/A,,Clear,90,2013-11-15 15:53:00
11:53 AM,64.0,51.1,63,30.30,10.0,East,10.4,18.4,N/A,,Scattered Clouds,80,2013-11-15 16:53:00
12:53 PM,64.0,53.1,67,30.26,10.0,East,12.7,18.4,N/A,,Overcast,80,2013-11-15 17:53:00
1:53 PM,64.0,55.0,73,30.25,10.0,East,9.2,-,N/A,,Overcast,80,2013-11-15 18:53:00
2:53 PM,63.0,57.0,81,30.23,10.0,East,8.1,-,0.00,,Overcast,80,2013-11-15 19:53:00
3:53 PM,64.0,57.0,78,30.23,10.0,East,6.9,-,N/A,,Overcast,80,2013-11-15 20:53:00
4:09 PM,62.6,57.2,82,30.23,2.0,NE,5.8,-,0.00,Rain,Light Rain,50,2013-11-15 21:09:00
4:53 PM,61.0,59.0,93,30.22,2.0,Calm,Calm,-,0.02,Rain,Light Rain,0,2013-11-15 21:53:00
5:05 PM,60.8,59.0,94,30.21,5.0,NNE,3.5,-,0.00,Rain,Light Rain,30,2013-11-15 22:05:00
5:53 PM,60.1,57.9,93,30.20,10.0,ENE,5.8,-,0.00,,Overcast,70,2013-11-15 22:53:00
6:53 PM,61.0,57.9,90,30.22,10.0,Calm,Calm,-,0.02,,Mostly Cloudy,0,2013-11-15 23:53:00
7:53 PM,60.1,57.9,93,30.21,10.0,East,6.9,-,0.01,,Mostly Cloudy,90,2013-11-16 00:53:00
8:53 PM,62.1,57.9,86,30.20,10.0,ENE,5.8,-,N/A,,Clear,70,2013-11-16 01:53:00
9:53 PM,62.1,57.9,86,30.20,10.0,East,4.6,-,N/A,,Overcast,80,2013-11-16 02:53:00
10:53 PM,63.0,59.0,87,30.20,10.0,East,8.1,-,N/A,,Overcast,80,2013-11-16 03:53:00
11:53 PM,63.0,60.1,90,30.20,10.0,ENE,6.9,-,N/A,,Overcast,70,2013-11-16 04:53:00